When you browse on this site, cookies collect data to enhance your experience and personalize the content and advertising you see.
Visit our Privacy Policy to learn more. By continuing to use the site, you agree to this use of cookies and data.
  • In Austria
  • List of Countries
  • For 7 days
  • Water Temperature
  • Weather Map
  • News
  • Weather Widgets
  • user-avatar
    Login

    Hourly Weather Lutoven

    Today, 17 September, Tuesday

    Time Temperature Precipitation Wind Pressure Humidity
    00:00 +10°C° 0 mm 4 mps 745 mmHg 76%
    01:00 +8°C° 0 mm 4 mps 745 mmHg 79%
    02:00 +8°C° 0 mm 4 mps 745 mmHg 83%
    03:00 +7°C° 0 mm 4 mps 745 mmHg 82%
    04:00 +7°C° 0 mm 4 mps 745 mmHg 82%
    05:00 +7°C° 0 mm 4 mps 745 mmHg 81%
    06:00 +7°C° 0 mm 5 mps 745 mmHg 79%
    07:00 +8°C° 0 mm 5 mps 745 mmHg 77%
    08:00 +9°C° 0 mm 6 mps 745 mmHg 75%
    09:00 +10°C° 0 mm 6 mps 745 mmHg 69%
    10:00 +13°C° 0 mm 6 mps 745 mmHg 62%
    11:00 +14°C° 0 mm 6 mps 745 mmHg 56%
    12:00 +15°C° 0 mm 6 mps 744 mmHg 54%
    13:00 +15°C° 0 mm 6 mps 744 mmHg 52%
    14:00 +16°C° 0 mm 6 mps 743 mmHg 50%
    15:00 +15°C° 0.2 mm 5 mps 743 mmHg 55%
    16:00 +14°C° 0.2 mm 4 mps 742 mmHg 60%
    17:00 +14°C° 0.2 mm 4 mps 742 mmHg 64%
    18:00 +13°C° 0.3 mm 4 mps 742 mmHg 67%
    19:00 +12°C° 0.3 mm 4 mps 741 mmHg 70%
    20:00 +11°C° 0.3 mm 4 mps 741 mmHg 73%
    21:00 +10°C° 0.1 mm 4 mps 741 mmHg 76%
    22:00 +10°C° 0.1 mm 4 mps 740 mmHg 78%
    23:00 +8°C° 0.1 mm 4 mps 740 mmHg 81%

    Tomorrow, 18 September, Wednesday

    Time Temperature Precipitation Wind Pressure Humidity
    00:00 +8°C° 0.9 mm 4 mps 739 mmHg 84%
    01:00 +7°C° 0.9 mm 4 mps 739 mmHg 87%
    02:00 +7°C° 0.9 mm 4 mps 739 mmHg 91%
    03:00 +6°C° 1 mm 5 mps 739 mmHg 90%
    04:00 +6°C° 1 mm 5 mps 739 mmHg 90%
    05:00 +6°C° 1 mm 5 mps 738 mmHg 89%
    06:00 +5°C° 0.2 mm 6 mps 739 mmHg 88%
    07:00 +5°C° 0.2 mm 6 mps 739 mmHg 88%
    08:00 +5°C° 0.2 mm 7 mps 740 mmHg 87%
    09:00 +5°C° 0.2 mm 7 mps 740 mmHg 84%
    10:00 +6°C° 0.2 mm 7 mps 740 mmHg 82%
    11:00 +7°C° 0.2 mm 6 mps 741 mmHg 80%
    12:00 +8°C° 0.1 mm 7 mps 741 mmHg 78%
    13:00 +8°C° 0.1 mm 7 mps 742 mmHg 76%
    14:00 +9°C° 0.1 mm 7 mps 742 mmHg 74%
    15:00 +9°C° 0.1 mm 7 mps 743 mmHg 72%
    16:00 +10°C° 0.1 mm 6 mps 743 mmHg 71%
    17:00 +10°C° 0.1 mm 6 mps 744 mmHg 70%
    18:00 +10°C° 0.1 mm 5 mps 745 mmHg 74%
    19:00 +9°C° 0.1 mm 5 mps 745 mmHg 78%
    20:00 +8°C° 0.1 mm 5 mps 746 mmHg 82%
    21:00 +8°C° 0 mm 5 mps 746 mmHg 84%
    22:00 +7°C° 0 mm 5 mps 747 mmHg 86%
    23:00 +7°C° 0 mm 5 mps 747 mmHg 88%

    Day after tomorrow, 19 September, Thursday

    Time Temperature Precipitation Wind Pressure Humidity
    00:00 +7°C° 0 mm 5 mps 748 mmHg 89%
    01:00 +6°C° 0 mm 5 mps 748 mmHg 91%
    02:00 +6°C° 0 mm 5 mps 748 mmHg 92%
    03:00 +6°C° 0 mm 5 mps 749 mmHg 91%
    04:00 +6°C° 0 mm 5 mps 749 mmHg 91%
    05:00 +6°C° 0 mm 5 mps 749 mmHg 90%
    06:00 +6°C° 0 mm 5 mps 749 mmHg 88%
    07:00 +6°C° 0 mm 5 mps 750 mmHg 87%
    08:00 +6°C° 0 mm 4 mps 750 mmHg 85%
    09:00 +8°C° 0.1 mm 5 mps 750 mmHg 80%
    10:00 +9°C° 0.1 mm 5 mps 750 mmHg 76%
    11:00 +10°C° 0.1 mm 5 mps 750 mmHg 71%
    12:00 +10°C° 0.4 mm 5 mps 750 mmHg 71%
    13:00 +10°C° 0.4 mm 5 mps 750 mmHg 71%
    14:00 +12°C° 0.4 mm 5 mps 750 mmHg 71%
    15:00 +11°C° 0.2 mm 4 mps 750 mmHg 72%
    16:00 +11°C° 0.2 mm 4 mps 750 mmHg 73%
    17:00 +11°C° 0.2 mm 3 mps 750 mmHg 74%
    18:00 +10°C° 0.2 mm 3 mps 750 mmHg 79%
    19:00 +9°C° 0.2 mm 3 mps 751 mmHg 84%
    20:00 +8°C° 0.2 mm 3 mps 751 mmHg 89%
    21:00 +7°C° 0.1 mm 3 mps 751 mmHg 90%
    22:00 +7°C° 0.1 mm 3 mps 751 mmHg 91%
    23:00 +7°C° 0.1 mm 3 mps 751 mmHg 92%

    20 September, Friday

    Time Temperature Precipitation Wind Pressure Humidity
    00:00 +7°C° 0 mm 3 mps 751 mmHg 92%
    01:00 +7°C° 0 mm 3 mps 751 mmHg 91%
    02:00 +6°C° 0 mm 4 mps 751 mmHg 91%
    03:00 +5°C° 0 mm 4 mps 751 mmHg 93%
    04:00 +4°C° 0 mm 4 mps 751 mmHg 94%
    05:00 +4°C° 0 mm 4 mps 751 mmHg 96%
    06:00 +4°C° 0 mm 4 mps 751 mmHg 92%
    07:00 +3°C° 0 mm 5 mps 751 mmHg 88%
    08:00 +5°C° 0 mm 5 mps 752 mmHg 85%
    09:00 +5°C° 0.1 mm 6 mps 752 mmHg 76%
    10:00 +7°C° 0.1 mm 6 mps 752 mmHg 67%
    11:00 +9°C° 0.1 mm 6 mps 752 mmHg 58%
    12:00 +9°C° 0.2 mm 6 mps 752 mmHg 57%
    13:00 +9°C° 0.2 mm 7 mps 752 mmHg 56%
    14:00 +10°C° 0.2 mm 7 mps 752 mmHg 55%
    15:00 +9°C° 0.2 mm 6 mps 752 mmHg 59%
    16:00 +9°C° 0.2 mm 5 mps 752 mmHg 63%
    17:00 +8°C° 0.2 mm 4 mps 752 mmHg 67%
    18:00 +8°C° 0 mm 3 mps 753 mmHg 73%
    19:00 +5°C° 0 mm 3 mps 753 mmHg 78%
    20:00 +4°C° 0 mm 3 mps 754 mmHg 84%
    21:00 +4°C° 0 mm 3 mps 754 mmHg 86%
    22:00 +3°C° 0 mm 3 mps 754 mmHg 89%
    23:00 +3°C° 0 mm 3 mps 755 mmHg 91%

    21 September, Saturday

    Time Temperature Precipitation Wind Pressure Humidity
    00:00 +3°C° 0 mm 3 mps 755 mmHg 92%
    01:00 +2°C° 0 mm 3 mps 756 mmHg 93%
    02:00 +3°C° 0 mm 2 mps 756 mmHg 94%
    03:00 +2°C° 0 mm 3 mps 756 mmHg 95%
    04:00 +1°C° 0 mm 3 mps 756 mmHg 96%
    05:00 +1°C° 0 mm 3 mps 757 mmHg 96%
    06:00 +2°C° 0 mm 3 mps 757 mmHg 92%
    07:00 +3°C° 0 mm 3 mps 757 mmHg 88%
    08:00 +4°C° 0 mm 4 mps 757 mmHg 84%
    09:00 +5°C° 0 mm 3 mps 757 mmHg 73%
    10:00 +8°C° 0 mm 3 mps 758 mmHg 62%
    11:00 +10°C° 0 mm 3 mps 758 mmHg 51%
    12:00 +11°C° 0 mm 3 mps 758 mmHg 48%
    13:00 +11°C° 0 mm 4 mps 757 mmHg 45%
    14:00 +12°C° 0 mm 4 mps 757 mmHg 43%
    15:00 +11°C° 0 mm 3 mps 757 mmHg 47%
    16:00 +11°C° 0 mm 3 mps 757 mmHg 51%
    17:00 +11°C° 0 mm 3 mps 757 mmHg 56%
    18:00 +10°C° 0 mm 3 mps 757 mmHg 57%
    19:00 +10°C° 0 mm 3 mps 756 mmHg 59%
    20:00 +9°C° 0 mm 3 mps 756 mmHg 61%
    21:00 +8°C° 0 mm 4 mps 756 mmHg 63%
    22:00 +7°C° 0 mm 4 mps 756 mmHg 64%
    23:00 +7°C° 0 mm 4 mps 756 mmHg 66%

    22 September, Sunday

    Time Temperature Precipitation Wind Pressure Humidity
    00:00 +7°C° 0 mm 4 mps 756 mmHg 66%
    01:00 +7°C° 0 mm 4 mps 756 mmHg 67%
    02:00 +6°C° 0 mm 5 mps 755 mmHg 67%
    03:00 +6°C° 0 mm 4 mps 755 mmHg 69%
    04:00 +6°C° 0 mm 4 mps 755 mmHg 71%
    05:00 +6°C° 0 mm 4 mps 755 mmHg 73%
    06:00 +7°C° 0 mm 4 mps 755 mmHg 73%
    07:00 +8°C° 0 mm 5 mps 755 mmHg 72%
    08:00 +8°C° 0 mm 5 mps 755 mmHg 71%
    09:00 +10°C° 0 mm 5 mps 755 mmHg 66%
    10:00 +14°C° 0 mm 5 mps 755 mmHg 60%
    11:00 +16°C° 0 mm 6 mps 755 mmHg 54%
    12:00 +16°C° 0 mm 5 mps 754 mmHg 52%
    13:00 +17°C° 0 mm 5 mps 754 mmHg 50%
    14:00 +19°C° 0 mm 5 mps 753 mmHg 48%
    15:00 +18°C° 0 mm 4 mps 753 mmHg 52%
    16:00 +18°C° 0 mm 4 mps 753 mmHg 56%
    17:00 +17°C° 0 mm 3 mps 752 mmHg 59%
    18:00 +14°C° 0 mm 3 mps 752 mmHg 64%
    19:00 +14°C° 0 mm 2 mps 752 mmHg 68%
    20:00 +12°C° 0 mm 2 mps 752 mmHg 73%
    21:00 +10°C° 0 mm 2 mps 752 mmHg 74%
    22:00 +10°C° 0 mm 2 mps 751 mmHg 75%
    23:00 +10°C° 0 mm 1 mps 751 mmHg 77%
    Show more